Time,TemperatureF,DewpointF,PressureIn,WindDirection,WindDirectionDegrees,WindSpeedMPH,WindSpeedGustMPH,Humidity,HourlyPrecipIn,Conditions,Clouds,dailyrainin,SoftwareType,DateUTC
2014-01-06 00:09:00,37.2,36.9,29.38,ENE,67,1.1,-999.0,99,-99.99,,,0.00,Acu-Link.com,2014-01-06 05:09:00,
2014-01-06 00:24:00,37.4,37.1,29.37,NNW,337,0.0,-999.0,99,-99.99,,,0.00,Acu-Link.com,2014-01-06 05:24:00,
2014-01-06 00:39:00,37.6,37.3,29.36,SSW,202,3.2,-999.0,99,-99.99,,,0.00,Acu-Link.com,2014-01-06 05:39:00,
2014-01-06 00:54:00,38.5,38.2,29.34,South,180,2.2,-999.0,99,-99.99,,,0.00,Acu-Link.com,2014-01-06 05:54:00,
2014-01-06 01:09:00,40.5,40.2,29.34,SSW,202,3.2,-999.0,99,-99.99,,,0.00,Acu-Link.com,2014-01-06 06:09:00,
2014-01-06 01:24:00,42.6,42.3,29.33,SW,225,5.8,-999.0,99,-99.99,,,0.00,Acu-Link.com,2014-01-06 06:24:00,
2014-01-06 01:40:00,43.0,42.7,29.31,ESE,112,6.8,-999.0,99,-99.99,,,0.00,Acu-Link.com,2014-01-06 06:40:00,
2014-01-06 01:55:00,43.2,42.7,29.28,ESE,112,4.2,-999.0,98,-99.99,,,0.00,Acu-Link.com,2014-01-06 06:55:00,
2014-01-06 02:10:00,43.9,42.8,29.26,East,90,6.8,-999.0,96,-99.99,,,0.00,Acu-Link.com,2014-01-06 07:10:00,
2014-01-06 02:25:00,43.9,42.6,29.25,SSW,202,4.7,-999.0,95,-99.99,,,0.00,Acu-Link.com,2014-01-06 07:25:00,
2014-01-06 02:40:00,44.2,42.6,29.25,WSW,247,5.3,-999.0,94,-99.99,,,0.00,Acu-Link.com,2014-01-06 07:40:00,
2014-01-06 02:55:00,44.6,43.0,29.24,SSW,202,11.4,-999.0,94,-99.99,,,0.00,Acu-Link.com,2014-01-06 07:55:00,
2014-01-06 03:10:00,44.4,42.8,29.24,SW,225,5.8,-999.0,94,-99.99,,,0.01,Acu-Link.com,2014-01-06 08:10:00,
2014-01-06 03:25:00,43.9,42.6,29.22,WNW,292,6.3,-999.0,95,-99.99,,,0.03,Acu-Link.com,2014-01-06 08:25:00,
2014-01-06 03:40:00,44.1,42.8,29.21,SSW,202,4.7,-999.0,95,-99.99,,,0.04,Acu-Link.com,2014-01-06 08:40:00,
2014-01-06 03:56:00,43.9,42.8,29.19,NW,315,5.8,-999.0,96,-99.99,,,0.07,Acu-Link.com,2014-01-06 08:56:00,
2014-01-06 04:11:00,43.3,42.2,29.19,SSW,202,2.7,-999.0,96,-99.99,,,0.07,Acu-Link.com,2014-01-06 09:11:00,
2014-01-06 04:26:00,43.3,42.5,29.17,West,270,3.2,-999.0,97,-99.99,,,0.07,Acu-Link.com,2014-01-06 09:26:00,
2014-01-06 04:41:00,43.3,42.5,29.19,SW,225,4.2,-999.0,97,-99.99,,,0.07,Acu-Link.com,2014-01-06 09:41:00,
2014-01-06 04:56:00,42.8,42.0,29.19,SW,225,4.7,-999.0,97,-99.99,,,0.07,Acu-Link.com,2014-01-06 09:56:00,
2014-01-06 05:11:00,43.0,41.9,29.20,SSW,202,6.3,-999.0,96,-99.99,,,0.07,Acu-Link.com,2014-01-06 10:11:00,
2014-01-06 05:26:00,43.0,41.7,29.20,WSW,247,5.3,-999.0,95,-99.99,,,0.07,Acu-Link.com,2014-01-06 10:26:00,
2014-01-06 05:41:00,42.6,41.3,29.19,SSE,157,0.0,-999.0,95,-99.99,,,0.07,Acu-Link.com,2014-01-06 10:41:00,
2014-01-06 05:56:00,42.1,41.0,29.22,WSW,247,3.7,-999.0,96,-99.99,,,0.07,Acu-Link.com,2014-01-06 10:56:00,
2014-01-06 06:12:00,41.2,40.1,29.23,SW,225,2.7,-999.0,96,-99.99,,,0.07,Acu-Link.com,2014-01-06 11:12:00,
2014-01-06 06:27:00,42.3,38.4,29.22,SW,225,7.8,-999.0,86,-99.99,,,0.08,Acu-Link.com,2014-01-06 11:27:00,
2014-01-06 06:42:00,42.3,37.2,29.24,SW,225,16.1,-999.0,82,-99.99,,,0.09,Acu-Link.com,2014-01-06 11:42:00,
2014-01-06 06:57:00,39.4,35.6,29.27,WSW,247,13.0,-999.0,86,-99.99,,,0.09,Acu-Link.com,2014-01-06 11:57:00,
2014-01-06 07:12:00,35.8,31.7,29.29,WSW,247,15.5,-999.0,85,-99.99,,,0.10,Acu-Link.com,2014-01-06 12:12:00,
2014-01-06 07:27:00,35.4,29.5,29.33,SW,225,11.9,-999.0,79,-99.99,,,0.10,Acu-Link.com,2014-01-06 12:27:00,
2014-01-06 07:43:00,35.2,29.0,29.35,WSW,247,16.6,-999.0,78,-99.99,,,0.10,Acu-Link.com,2014-01-06 12:43:00,
2014-01-06 07:58:00,34.9,28.4,29.34,SW,225,15.0,-999.0,77,-99.99,,,0.10,Acu-Link.com,2014-01-06 12:58:00,
2014-01-06 08:13:00,34.2,26.8,29.36,West,270,11.9,-999.0,74,-99.99,,,0.10,Acu-Link.com,2014-01-06 13:13:00,
2014-01-06 08:28:00,33.4,25.7,29.39,SW,225,15.0,-999.0,73,-99.99,,,0.10,Acu-Link.com,2014-01-06 13:28:00,
2014-01-06 08:43:00,33.1,26.1,29.41,West,270,5.3,-999.0,75,-99.99,,,0.10,Acu-Link.com,2014-01-06 13:43:00,
2014-01-06 08:58:00,32.7,26.0,29.41,West,270,14.5,-999.0,76,-99.99,,,0.10,Acu-Link.com,2014-01-06 13:58:00,
2014-01-06 09:13:00,31.8,25.1,29.44,SW,225,14.0,-999.0,76,-99.99,,,0.10,Acu-Link.com,2014-01-06 14:13:00,
2014-01-06 09:28:00,31.3,24.6,29.45,West,270,14.0,-999.0,76,-99.99,,,0.10,Acu-Link.com,2014-01-06 14:28:00,
2014-01-06 09:43:00,30.7,22.8,29.46,SW,225,12.5,-999.0,72,-99.99,,,0.10,Acu-Link.com,2014-01-06 14:43:00,
2014-01-06 09:59:00,30.0,21.8,29.48,SW,225,10.9,-999.0,71,-99.99,,,0.10,Acu-Link.com,2014-01-06 14:59:00,
2014-01-06 10:14:00,32.4,22.7,29.48,WSW,247,9.4,-999.0,67,-99.99,,,0.10,Acu-Link.com,2014-01-06 15:14:00,
2014-01-06 10:29:00,31.3,22.3,29.49,WSW,247,13.5,-999.0,69,-99.99,,,0.10,Acu-Link.com,2014-01-06 15:29:00,
2014-01-06 10:44:00,30.6,22.7,29.50,West,270,6.8,-999.0,72,-99.99,,,0.10,Acu-Link.com,2014-01-06 15:44:00,
2014-01-06 10:59:00,28.9,22.6,29.51,WSW,247,7.8,-999.0,77,-99.99,,,0.10,Acu-Link.com,2014-01-06 15:59:00,
2014-01-06 11:14:00,30.7,21.4,29.50,West,270,15.5,-999.0,68,-99.99,,,0.10,Acu-Link.com,2014-01-06 16:14:00,
2014-01-06 11:29:00,30.2,21.6,29.50,West,270,11.9,-999.0,70,-99.99,,,0.10,Acu-Link.com,2014-01-06 16:29:00,
2014-01-06 11:44:00,31.3,21.6,29.49,WSW,247,12.5,-999.0,67,-99.99,,,0.10,Acu-Link.com,2014-01-06 16:44:00,
2014-01-06 12:00:00,30.2,20.9,29.48,West,270,15.0,-999.0,68,-99.99,,,0.10,Acu-Link.com,2014-01-06 17:00:00,
2014-01-06 12:15:00,29.1,20.2,29.49,West,270,16.1,-999.0,69,-99.99,,,0.10,Acu-Link.com,2014-01-06 17:15:00,
2014-01-06 12:30:00,28.9,20.0,29.49,WSW,247,10.9,-999.0,69,-99.99,,,0.10,Acu-Link.com,2014-01-06 17:30:00,
2014-01-06 12:45:00,30.0,20.4,29.49,WSW,247,13.0,-999.0,67,-99.99,,,0.10,Acu-Link.com,2014-01-06 17:45:00,
2014-01-06 13:00:00,29.3,20.8,29.50,WSW,247,8.3,-999.0,70,-99.99,,,0.10,Acu-Link.com,2014-01-06 18:00:00,
2014-01-06 13:15:00,28.6,19.7,29.50,West,270,9.9,-999.0,69,-99.99,,,0.10,Acu-Link.com,2014-01-06 18:15:00,
2014-01-06 13:30:00,27.1,19.6,29.50,West,270,8.3,-999.0,73,-99.99,,,0.10,Acu-Link.com,2014-01-06 18:30:00,
2014-01-06 13:45:00,27.7,18.5,29.51,SW,225,10.4,-999.0,68,-99.99,,,0.10,Acu-Link.com,2014-01-06 18:45:00,
2014-01-06 14:00:00,27.5,18.7,29.52,WSW,247,8.3,-999.0,69,-99.99,,,0.10,Acu-Link.com,2014-01-06 19:00:00,
2014-01-06 14:16:00,26.2,16.8,29.52,WSW,247,13.0,-999.0,67,-99.99,,,0.10,Acu-Link.com,2014-01-06 19:16:00,
2014-01-06 14:31:00,25.9,17.2,29.53,West,270,19.7,-999.0,69,-99.99,,,0.10,Acu-Link.com,2014-01-06 19:31:00,
2014-01-06 14:46:00,25.3,16.9,29.53,WNW,292,19.1,-999.0,70,-99.99,,,0.10,Acu-Link.com,2014-01-06 19:46:00,
2014-01-06 15:01:00,24.3,15.9,29.54,West,270,13.0,-999.0,70,-99.99,,,0.10,Acu-Link.com,2014-01-06 20:01:00,
2014-01-06 15:16:00,24.3,16.3,29.54,WSW,247,13.0,-999.0,71,-99.99,,,0.10,Acu-Link.com,2014-01-06 20:16:00,
2014-01-06 15:31:00,23.9,16.5,29.55,West,270,14.0,-999.0,73,-99.99,,,0.10,Acu-Link.com,2014-01-06 20:31:00,
2014-01-06 15:46:00,23.2,16.5,29.56,WSW,247,9.4,-999.0,75,-99.99,,,0.10,Acu-Link.com,2014-01-06 20:46:00,
2014-01-06 16:01:00,23.4,17.3,29.56,WSW,247,7.3,-999.0,77,-99.99,,,0.10,Acu-Link.com,2014-01-06 21:01:00,
2014-01-06 16:16:00,21.7,13.5,29.56,SW,225,12.5,-999.0,70,-99.99,,,0.10,Acu-Link.com,2014-01-06 21:16:00,
2014-01-06 16:32:00,20.5,12.3,29.57,WSW,247,11.9,-999.0,70,-99.99,,,0.10,Acu-Link.com,2014-01-06 21:32:00,
2014-01-06 16:47:00,19.4,11.6,29.57,WSW,247,11.4,-999.0,71,-99.99,,,0.10,Acu-Link.com,2014-01-06 21:47:00,
2014-01-06 17:02:00,18.5,10.4,29.58,SW,225,8.9,-999.0,70,-99.99,,,0.10,Acu-Link.com,2014-01-06 22:02:00,
2014-01-06 17:17:00,18.0,10.2,29.59,WSW,247,9.9,-999.0,71,-99.99,,,0.10,Acu-Link.com,2014-01-06 22:17:00,
2014-01-06 17:32:00,17.1,9.0,29.60,West,270,20.2,-999.0,70,-99.99,,,0.10,Acu-Link.com,2014-01-06 22:32:00,
2014-01-06 17:47:00,15.6,6.3,29.60,WSW,247,17.1,-999.0,66,-99.99,,,0.10,Acu-Link.com,2014-01-06 22:47:00,
2014-01-06 18:02:00,14.0,5.7,29.60,NNW,337,18.1,-999.0,69,-99.99,,,0.10,Acu-Link.com,2014-01-06 23:02:00,
2014-01-06 18:17:00,13.3,5.7,29.62,SW,225,15.0,-999.0,71,-99.99,,,0.10,Acu-Link.com,2014-01-06 23:17:00,
2014-01-06 18:33:00,12.6,5.0,29.63,West,270,14.0,-999.0,71,-99.99,,,0.10,Acu-Link.com,2014-01-06 23:33:00,
2014-01-06 18:48:00,11.3,2.8,29.64,WSW,247,12.5,-999.0,68,-99.99,,,0.10,Acu-Link.com,2014-01-06 23:48:00,
2014-01-06 19:03:00,10.4,1.6,29.66,West,270,14.0,-999.0,67,-99.99,,,0.10,Acu-Link.com,2014-01-07 00:03:00,
2014-01-06 19:18:00,9.1,-1.9,29.66,WSW,247,15.0,-999.0,60,-99.99,,,0.10,Acu-Link.com,2014-01-07 00:18:00,
2014-01-06 19:33:00,8.8,-4.0,29.67,SW,225,9.9,-999.0,55,-99.99,,,0.10,Acu-Link.com,2014-01-07 00:33:00,
2014-01-06 19:48:00,8.4,-2.9,29.67,SW,225,10.9,-999.0,59,-99.99,,,0.10,Acu-Link.com,2014-01-07 00:48:00,
2014-01-06 20:03:00,8.2,-3.5,29.67,SW,225,9.4,-999.0,58,-99.99,,,0.10,Acu-Link.com,2014-01-07 01:03:00,
2014-01-06 20:18:00,7.9,-3.8,29.68,WSW,247,12.5,-999.0,58,-99.99,,,0.10,Acu-Link.com,2014-01-07 01:18:00,
2014-01-06 20:33:00,7.3,-3.6,29.70,SW,225,13.5,-999.0,60,-99.99,,,0.10,Acu-Link.com,2014-01-07 01:33:00,
2014-01-06 20:49:00,7.0,-3.9,29.71,SW,225,14.0,-999.0,60,-99.99,,,0.10,Acu-Link.com,2014-01-07 01:49:00,
2014-01-06 21:04:00,6.4,-4.1,29.70,SW,225,14.0,-999.0,61,-99.99,,,0.10,Acu-Link.com,2014-01-07 02:04:00,
2014-01-06 21:19:00,6.1,-4.1,29.70,SW,225,14.0,-999.0,62,-99.99,,,0.10,Acu-Link.com,2014-01-07 02:19:00,
2014-01-06 21:34:00,5.7,-4.1,29.70,SW,225,14.0,-999.0,63,-99.99,,,0.10,Acu-Link.com,2014-01-07 02:34:00,
2014-01-06 21:49:00,5.5,-4.0,29.71,WSW,247,13.0,-999.0,64,-99.99,,,0.10,Acu-Link.com,2014-01-07 02:49:00,
2014-01-06 22:04:00,5.0,-4.2,29.70,WSW,247,13.0,-999.0,65,-99.99,,,0.10,Acu-Link.com,2014-01-07 03:04:00,
2014-01-06 22:19:00,4.5,-4.0,29.69,SW,225,10.9,-999.0,67,-99.99,,,0.10,Acu-Link.com,2014-01-07 03:19:00,
2014-01-06 22:34:00,4.3,-3.6,29.70,WSW,247,9.9,-999.0,69,-99.99,,,0.10,Acu-Link.com,2014-01-07 03:34:00,